Time,TemperatureF,DewpointF,PressureIn,WindDirection,WindDirectionDegrees,WindSpeedMPH,WindSpeedGustMPH,Humidity,HourlyPrecipIn,Conditions,Clouds,dailyrainin,SolarRadiationWatts/m^2,SoftwareType,DateUTC
2013-05-29 00:07:00,57.7,57.0,30.12,SSW,202,0.0,-999.0,97,-99.99,,,0.15,0,weatherlink.com 1.10,2013-05-29 04:07:00,
2013-05-29 00:22:00,57.7,57.0,30.11,SSW,202,0.0,-999.0,97,-99.99,,,0.15,0,weatherlink.com 1.10,2013-05-29 04:22:00,
2013-05-29 00:37:00,57.9,57.0,30.11,SSW,202,0.0,-999.0,97,-99.99,,,0.15,0,weatherlink.com 1.10,2013-05-29 04:37:00,
2013-05-29 00:52:00,58.2,57.0,30.11,SSW,202,0.0,-999.0,97,-99.99,,,0.15,0,weatherlink.com 1.10,2013-05-29 04:52:00,
2013-05-29 01:07:00,58.0,57.0,30.11,SSW,202,0.0,-999.0,97,-99.99,,,0.15,0,weatherlink.com 1.10,2013-05-29 05:07:00,
2013-05-29 01:22:00,58.1,57.0,30.11,SW,219,0.0,-999.0,97,-99.99,,,0.15,0,weatherlink.com 1.10,2013-05-29 05:22:00,
2013-05-29 01:37:00,57.9,57.0,30.11,SW,214,0.0,-999.0,97,-99.99,,,0.15,0,weatherlink.com 1.10,2013-05-29 05:37:00,
2013-05-29 01:52:00,58.0,57.0,30.10,SSE,154,0.0,-999.0,97,-99.99,,,0.15,0,weatherlink.com 1.10,2013-05-29 05:52:00,
2013-05-29 02:07:00,57.9,57.0,30.08,SSE,154,0.0,-999.0,97,-99.99,,,0.00,0,weatherlink.com 1.10,2013-05-29 06:07:00,
2013-05-29 02:22:00,58.0,57.0,30.08,SSE,163,1.0,-999.0,97,-99.99,,,0.00,0,weatherlink.com 1.10,2013-05-29 06:22:00,
2013-05-29 02:37:00,58.0,57.0,30.08,SSW,201,1.0,-999.0,97,-99.99,,,0.00,0,weatherlink.com 1.10,2013-05-29 06:37:00,
2013-05-29 02:52:00,57.9,57.0,30.07,South,184,2.0,-999.0,97,-99.99,,,0.00,0,weatherlink.com 1.10,2013-05-29 06:52:00,
2013-05-29 03:07:00,57.8,57.0,30.07,SSW,195,1.0,-999.0,97,-99.99,,,0.00,0,weatherlink.com 1.10,2013-05-29 07:07:00,
2013-05-29 03:22:00,57.9,57.0,30.07,SSE,161,0.0,-999.0,97,-99.99,,,0.00,0,weatherlink.com 1.10,2013-05-29 07:22:00,
2013-05-29 03:37:00,58.0,57.0,30.06,SSE,161,0.0,-999.0,97,-99.99,,,0.00,0,weatherlink.com 1.10,2013-05-29 07:37:00,
2013-05-29 03:52:00,58.0,57.0,30.06,SSE,161,0.0,-999.0,97,-99.99,,,0.00,0,weatherlink.com 1.10,2013-05-29 07:52:00,
2013-05-29 04:07:00,58.1,57.0,30.06,SSE,161,0.0,-999.0,97,-99.99,,,0.00,0,weatherlink.com 1.10,2013-05-29 08:07:00,
2013-05-29 04:22:00,58.2,57.0,30.06,SSE,161,0.0,-999.0,97,-99.99,,,0.00,0,weatherlink.com 1.10,2013-05-29 08:22:00,
2013-05-29 04:37:00,58.2,57.0,30.05,SSE,161,0.0,-999.0,97,-99.99,,,0.00,0,weatherlink.com 1.10,2013-05-29 08:37:00,
2013-05-29 04:52:00,58.1,57.0,30.06,SSE,161,1.0,-999.0,97,-99.99,,,0.00,0,weatherlink.com 1.10,2013-05-29 08:52:00,
2013-05-29 05:07:00,58.2,57.0,30.05,SSE,161,0.0,-999.0,97,-99.99,,,0.00,0,weatherlink.com 1.10,2013-05-29 09:07:00,
2013-05-29 05:22:00,58.2,57.0,30.05,SSE,161,0.0,-999.0,97,-99.99,,,0.00,0,weatherlink.com 1.10,2013-05-29 09:22:00,
2013-05-29 05:37:00,58.3,58.0,30.06,SSE,161,0.0,-999.0,97,-99.99,,,0.00,0,weatherlink.com 1.10,2013-05-29 09:37:00,
2013-05-29 05:52:00,58.4,58.0,30.06,SSE,161,0.0,-999.0,97,-99.99,,,0.00,0,weatherlink.com 1.10,2013-05-29 09:52:00,
2013-05-29 06:07:00,58.6,58.0,30.06,SSE,161,0.0,-999.0,96,-99.99,,,0.00,0,weatherlink.com 1.10,2013-05-29 10:07:00,
2013-05-29 06:22:00,58.6,58.0,30.06,SSE,161,0.0,-999.0,97,-99.99,,,0.00,11,weatherlink.com 1.10,2013-05-29 10:22:00,
2013-05-29 06:37:00,59.0,58.0,30.07,SSE,161,0.0,-999.0,96,-99.99,,,0.00,11,weatherlink.com 1.10,2013-05-29 10:37:00,
2013-05-29 06:52:00,59.0,58.0,30.07,SSE,161,0.0,-999.0,96,-99.99,,,0.00,16,weatherlink.com 1.10,2013-05-29 10:52:00,
2013-05-29 07:07:00,59.1,58.0,30.07,SSE,161,0.0,-999.0,96,-99.99,,,0.00,18,weatherlink.com 1.10,2013-05-29 11:07:00,
2013-05-29 07:22:00,59.1,58.0,30.07,SSE,161,0.0,-999.0,96,-99.99,,,0.00,21,weatherlink.com 1.10,2013-05-29 11:22:00,
2013-05-29 07:37:00,59.1,58.0,30.07,SSE,161,0.0,-999.0,96,-99.99,,,0.00,32,weatherlink.com 1.10,2013-05-29 11:37:00,
2013-05-29 07:52:00,59.0,58.0,30.07,SSE,161,1.0,-999.0,96,-99.99,,,0.00,53,weatherlink.com 1.10,2013-05-29 11:52:00,
2013-05-29 08:07:00,59.0,58.0,30.07,SSE,161,2.0,-999.0,96,-99.99,,,0.00,79,weatherlink.com 1.10,2013-05-29 12:07:00,
2013-05-29 08:22:00,59.1,58.0,30.07,South,175,1.0,-999.0,96,-99.99,,,0.00,97,weatherlink.com 1.10,2013-05-29 12:22:00,
2013-05-29 08:37:00,59.1,58.0,30.07,SSE,167,0.0,-999.0,96,-99.99,,,0.00,90,weatherlink.com 1.10,2013-05-29 12:37:00,
2013-05-29 08:52:00,59.3,59.0,30.07,SSE,168,0.0,-999.0,97,-99.99,,,0.00,83,weatherlink.com 1.10,2013-05-29 12:52:00,
2013-05-29 09:07:00,59.4,59.0,30.07,SSE,165,0.0,-999.0,97,-99.99,,,0.00,90,weatherlink.com 1.10,2013-05-29 13:07:00,
2013-05-29 09:22:00,59.7,59.0,30.07,SSE,157,2.0,-999.0,97,-99.99,,,0.00,195,weatherlink.com 1.10,2013-05-29 13:22:00,
2013-05-29 09:37:00,60.4,60.0,30.06,SSE,157,0.0,-999.0,97,-99.99,,,0.00,135,weatherlink.com 1.10,2013-05-29 13:37:00,
2013-05-29 09:52:00,60.4,60.0,30.06,SSE,157,0.0,-999.0,97,-99.99,,,0.00,104,weatherlink.com 1.10,2013-05-29 13:52:00,
2013-05-29 10:07:00,60.8,60.0,30.07,SSE,157,0.0,-999.0,97,-99.99,,,0.00,167,weatherlink.com 1.10,2013-05-29 14:07:00,
2013-05-29 10:22:00,61.6,61.0,30.07,SSE,157,0.0,-999.0,96,-99.99,,,0.00,148,weatherlink.com 1.10,2013-05-29 14:22:00,
2013-05-29 10:37:00,61.6,61.0,30.07,SSE,158,0.0,-999.0,96,-99.99,,,0.00,229,weatherlink.com 1.10,2013-05-29 14:37:00,
2013-05-29 10:52:00,62.5,61.0,30.07,SSE,156,1.0,-999.0,96,-99.99,,,0.00,338,weatherlink.com 1.10,2013-05-29 14:52:00,
2013-05-29 11:07:00,63.4,62.0,30.06,SSE,153,0.0,-999.0,94,-99.99,,,0.00,276,weatherlink.com 1.10,2013-05-29 15:07:00,
2013-05-29 11:22:00,64.9,63.0,30.05,SSW,195,3.0,-999.0,94,-99.99,,,0.00,378,weatherlink.com 1.10,2013-05-29 15:22:00,
2013-05-29 11:37:00,66.6,64.0,30.05,South,184,0.0,-999.0,90,-99.99,,,0.00,612,weatherlink.com 1.10,2013-05-29 15:37:00,
2013-05-29 11:52:00,67.9,65.0,30.05,West,271,0.0,-999.0,89,-99.99,,,0.00,473,weatherlink.com 1.10,2013-05-29 15:52:00,
2013-05-29 12:07:00,69.3,65.0,30.04,SSW,206,0.0,-999.0,86,-99.99,,,0.00,998,weatherlink.com 1.10,2013-05-29 16:07:00,
2013-05-29 12:22:00,69.8,65.0,30.04,SSW,193,6.0,-999.0,85,-99.99,,,0.00,988,weatherlink.com 1.10,2013-05-29 16:22:00,
2013-05-29 12:37:00,70.6,66.0,30.03,South,187,3.0,-999.0,85,-99.99,,,0.00,912,weatherlink.com 1.10,2013-05-29 16:37:00,
2013-05-29 12:52:00,71.3,66.0,30.03,SW,223,0.0,-999.0,83,-99.99,,,0.00,937,weatherlink.com 1.10,2013-05-29 16:52:00,
2013-05-29 13:07:00,72.8,67.0,30.04,SSW,204,3.0,-999.0,81,-99.99,,,0.00,828,weatherlink.com 1.10,2013-05-29 17:07:00,
2013-05-29 13:22:00,73.3,67.0,30.03,SW,227,0.0,-999.0,81,-99.99,,,0.00,896,weatherlink.com 1.10,2013-05-29 17:22:00,
2013-05-29 13:37:00,74.2,68.0,30.03,West,281,5.0,-999.0,81,-99.99,,,0.00,775,weatherlink.com 1.10,2013-05-29 17:37:00,
2013-05-29 13:52:00,75.1,69.0,30.02,SSE,161,4.0,-999.0,81,-99.99,,,0.00,912,weatherlink.com 1.10,2013-05-29 17:52:00,
2013-05-29 14:07:00,75.6,68.0,30.02,SE,134,5.0,-999.0,78,-99.99,,,0.00,735,weatherlink.com 1.10,2013-05-29 18:07:00,
2013-05-29 14:22:00,75.9,69.0,30.01,SE,134,1.0,-999.0,78,-99.99,,,0.00,737,weatherlink.com 1.10,2013-05-29 18:22:00,
2013-05-29 14:37:00,76.6,69.0,30.01,South,175,11.0,-999.0,78,-99.99,,,0.00,621,weatherlink.com 1.10,2013-05-29 18:37:00,
2013-05-29 14:52:00,77.0,70.0,30.00,SE,133,0.0,-999.0,78,-99.99,,,0.00,366,weatherlink.com 1.10,2013-05-29 18:52:00,
2013-05-29 15:07:00,78.4,70.0,30.00,SSW,213,0.0,-999.0,76,-99.99,,,0.00,432,weatherlink.com 1.10,2013-05-29 19:07:00,
2013-05-29 15:22:00,79.6,70.0,30.01,South,189,5.0,-999.0,73,-99.99,,,0.00,489,weatherlink.com 1.10,2013-05-29 19:22:00,
2013-05-29 15:37:00,79.1,70.0,30.00,NW,318,0.0,-999.0,74,-99.99,,,0.00,476,weatherlink.com 1.10,2013-05-29 19:37:00,
2013-05-29 15:52:00,79.7,70.0,29.99,WSW,254,1.0,-999.0,73,-99.99,,,0.00,452,weatherlink.com 1.10,2013-05-29 19:52:00,
2013-05-29 16:07:00,79.9,71.0,29.99,WSW,246,0.0,-999.0,73,-99.99,,,0.00,568,weatherlink.com 1.10,2013-05-29 20:07:00,
2013-05-29 16:22:00,81.6,72.0,29.99,NNW,329,2.0,-999.0,72,-99.99,,,0.00,599,weatherlink.com 1.10,2013-05-29 20:22:00,
2013-05-29 16:37:00,81.1,70.0,29.99,West,281,0.0,-999.0,70,-99.99,,,0.00,183,weatherlink.com 1.10,2013-05-29 20:37:00,
2013-05-29 16:52:00,81.1,71.0,29.99,SSW,194,2.0,-999.0,72,-99.99,,,0.00,343,weatherlink.com 1.10,2013-05-29 20:52:00,
2013-05-29 17:08:00,80.5,70.0,29.99,WSW,247,3.0,-999.0,71,-99.99,,,0.00,86,weatherlink.com 1.10,2013-05-29 21:08:00,
2013-05-29 17:22:00,80.4,71.0,29.99,SW,235,2.0,-999.0,74,-99.99,,,0.00,592,weatherlink.com 1.10,2013-05-29 21:22:00,
2013-05-29 17:38:00,81.5,70.0,29.98,SSW,195,0.0,-999.0,69,-99.99,,,0.00,374,weatherlink.com 1.10,2013-05-29 21:38:00,
2013-05-29 17:52:00,81.2,71.0,29.97,SSW,205,3.0,-999.0,70,-99.99,,,0.00,95,weatherlink.com 1.10,2013-05-29 21:52:00,
2013-05-29 18:07:00,80.9,70.0,29.96,SSW,205,1.0,-999.0,70,-99.99,,,0.00,308,weatherlink.com 1.10,2013-05-29 22:07:00,
2013-05-29 18:23:00,81.2,71.0,29.96,SW,223,0.0,-999.0,70,-99.99,,,0.00,237,weatherlink.com 1.10,2013-05-29 22:23:00,
2013-05-29 18:38:00,81.2,71.0,29.96,SSW,198,1.0,-999.0,70,-99.99,,,0.00,186,weatherlink.com 1.10,2013-05-29 22:38:00,
2013-05-29 18:52:00,81.3,71.0,29.96,SSW,196,3.0,-999.0,70,-99.99,,,0.00,142,weatherlink.com 1.10,2013-05-29 22:52:00,
2013-05-29 19:07:00,81.0,71.0,29.96,SSW,194,0.0,-999.0,71,-99.99,,,0.00,88,weatherlink.com 1.10,2013-05-29 23:07:00,
2013-05-29 19:23:00,80.3,71.0,29.96,SSW,193,1.0,-999.0,72,-99.99,,,0.00,42,weatherlink.com 1.10,2013-05-29 23:23:00,
2013-05-29 19:37:00,79.8,70.0,29.96,SSW,203,0.0,-999.0,73,-99.99,,,0.00,18,weatherlink.com 1.10,2013-05-29 23:37:00,
2013-05-29 19:53:00,79.1,71.0,29.97,SW,219,0.0,-999.0,76,-99.99,,,0.00,7,weatherlink.com 1.10,2013-05-29 23:53:00,
2013-05-29 20:07:00,78.1,70.0,29.97,SW,219,0.0,-999.0,77,-99.99,,,0.00,0,weatherlink.com 1.10,2013-05-30 00:07:00,
2013-05-29 20:22:00,76.1,70.0,29.97,SW,219,0.0,-999.0,82,-99.99,,,0.00,0,weatherlink.com 1.10,2013-05-30 00:22:00,
2013-05-29 20:37:00,75.1,70.0,29.96,SW,219,0.0,-999.0,84,-99.99,,,0.00,0,weatherlink.com 1.10,2013-05-30 00:37:00,
2013-05-29 20:52:00,74.1,70.0,29.97,SW,219,0.0,-999.0,86,-99.99,,,0.00,0,weatherlink.com 1.10,2013-05-30 00:52:00,
2013-05-29 21:07:00,73.5,70.0,29.98,SW,219,0.0,-999.0,88,-99.99,,,0.00,0,weatherlink.com 1.10,2013-05-30 01:07:00,
2013-05-29 21:22:00,73.0,70.0,29.98,SW,219,0.0,-999.0,89,-99.99,,,0.00,0,weatherlink.com 1.10,2013-05-30 01:22:00,
2013-05-29 21:37:00,72.7,70.0,30.00,SW,219,0.0,-999.0,90,-99.99,,,0.00,0,weatherlink.com 1.10,2013-05-30 01:37:00,
2013-05-29 21:52:00,72.5,70.0,30.00,SW,219,0.0,-999.0,90,-99.99,,,0.00,0,weatherlink.com 1.10,2013-05-30 01:52:00,
2013-05-29 22:07:00,72.2,70.0,30.01,SW,219,0.0,-999.0,91,-99.99,,,0.00,0,weatherlink.com 1.10,2013-05-30 02:07:00,
2013-05-29 22:22:00,71.4,69.0,30.02,North,9,3.0,-999.0,91,-99.99,,,0.00,0,weatherlink.com 1.10,2013-05-30 02:22:00,
2013-05-29 22:37:00,71.3,66.0,30.01,NE,40,0.0,-999.0,83,-99.99,,,0.00,0,weatherlink.com 1.10,2013-05-30 02:37:00,
2013-05-29 22:52:00,71.3,66.0,30.04,NE,35,2.0,-999.0,82,-99.99,,,0.00,0,weatherlink.com 1.10,2013-05-30 02:52:00,
2013-05-29 23:07:00,71.0,65.0,30.03,NNE,26,0.0,-999.0,81,-99.99,,,0.00,0,weatherlink.com 1.10,2013-05-30 03:07:00,
2013-05-29 23:22:00,70.9,66.0,30.03,NNE,26,2.0,-999.0,83,-99.99,,,0.00,0,weatherlink.com 1.10,2013-05-30 03:22:00,
2013-05-29 23:37:00,70.1,65.0,30.03,NNE,26,0.0,-999.0,84,-99.99,,,0.00,0,weatherlink.com 1.10,2013-05-30 03:37:00,
2013-05-29 23:52:00,69.5,66.0,30.04,NNE,26,0.0,-999.0,87,-99.99,,,0.00,0,weatherlink.com 1.10,2013-05-30 03:52:00,